contact:dominique.lefevre@mio.osupytheas.fr, maurice.libes@osupytheas.fr, didier.mallarino@osupytheas.fr
Project:EMSO http://www.emso-fr.org/EMSO-France
Depth: 2436.0 m
Title:EMSO Ligure Ouest : Data MII capteur MICROCAT
DateTime_Computer,Latitude,Longitude,Temperature,Conductivity,Pressure,DateTime_Instrument
DateTime_Computer,Latitude,Longitude,degC,S m-1,dbar,DateTime_Instrument
2020-04-11T00:00:02Z,42.805,6.029,13.2976,4.59996,2470.053,2020-4-11T02:00:42Z
2020-04-11T00:03:06Z,42.805,6.029,13.2981,4.59990,2470.03,2020-4-11T02:03:45Z
2020-04-11T00:06:09Z,42.805,6.029,13.2982,4.59996,2470.04,2020-4-11T02:06:48Z
2020-04-11T00:09:12Z,42.805,6.029,13.2983,4.59993,2470.017,2020-4-11T02:09:51Z
2020-04-11T00:12:15Z,42.805,6.029,13.2981,4.59997,2470.03,2020-4-11T02:12:54Z
2020-04-11T00:15:18Z,42.805,6.029,13.2987,4.60006,2470.03,2020-4-11T02:15:58Z
2020-04-11T00:18:22Z,42.805,6.029,13.2979,4.59996,2470.017,2020-4-11T02:19:01Z
2020-04-11T00:21:25Z,42.805,6.029,13.2987,4.59994,2470.017,2020-4-11T02:22:04Z
2020-04-11T00:24:28Z,42.805,6.029,13.2979,4.59999,2470.017,2020-4-11T02:25:08Z
2020-04-11T00:27:32Z,42.805,6.029,13.2984,4.59999,2470.04,2020-4-11T02:28:11Z
2020-04-11T00:30:35Z,42.805,6.029,13.2980,4.60010,2469.993,2020-4-11T02:31:14Z
2020-04-11T00:33:38Z,42.805,6.029,13.2981,4.60008,2470.03,2020-4-11T02:34:18Z
2020-04-11T00:36:42Z,42.805,6.029,13.2991,4.59999,2469.97,2020-4-11T02:37:21Z
2020-04-11T00:39:45Z,42.805,6.029,13.2982,4.60009,2470.007,2020-4-11T02:40:24Z
2020-04-11T00:42:48Z,42.805,6.029,13.2981,4.60009,2469.993,2020-4-11T02:43:27Z
2020-04-11T00:45:51Z,42.805,6.029,13.2979,4.59999,2470.007,2020-4-11T02:46:31Z
2020-04-11T00:48:55Z,42.805,6.029,13.2987,4.60001,2470.007,2020-4-11T02:49:34Z
2020-04-11T00:51:58Z,42.805,6.029,13.2977,4.60006,2470.017,2020-4-11T02:52:37Z
2020-04-11T00:55:01Z,42.805,6.029,13.2979,4.59994,2470.007,2020-4-11T02:55:40Z
2020-04-11T00:58:04Z,42.805,6.029,13.2980,4.59999,2469.984,2020-4-11T02:58:44Z
2020-04-11T01:01:07Z,42.805,6.029,13.2984,4.60006,2469.993,2020-4-11T03:01:47Z
2020-04-11T01:04:11Z,42.805,6.029,13.2986,4.60011,2469.97,2020-4-11T03:04:50Z
2020-04-11T01:07:14Z,42.805,6.029,13.2976,4.59991,2470.007,2020-4-11T03:07:53Z
2020-04-11T01:10:17Z,42.805,6.029,13.2983,4.60010,2469.97,2020-4-11T03:10:56Z
2020-04-11T01:13:20Z,42.805,6.029,13.2976,4.59998,2470.007,2020-4-11T03:14:00Z
2020-04-11T01:16:24Z,42.805,6.029,13.2983,4.59991,2469.984,2020-4-11T03:17:03Z
2020-04-11T01:19:27Z,42.805,6.029,13.2982,4.60004,2469.993,2020-4-11T03:20:06Z
2020-04-11T01:22:30Z,42.805,6.029,13.2979,4.60004,2469.947,2020-4-11T03:23:09Z
2020-04-11T01:25:33Z,42.805,6.029,13.2982,4.59999,2470.007,2020-4-11T03:26:13Z
2020-04-11T01:28:37Z,42.805,6.029,13.2982,4.59995,2469.97,2020-4-11T03:29:16Z
2020-04-11T01:31:40Z,42.805,6.029,13.2986,4.60005,2469.984,2020-4-11T03:32:19Z
2020-04-11T01:34:43Z,42.805,6.029,13.2979,4.59997,2469.947,2020-4-11T03:35:22Z
2020-04-11T01:37:46Z,42.805,6.029,13.2979,4.59988,2470.007,2020-4-11T03:38:26Z
2020-04-11T01:40:50Z,42.805,6.029,13.2973,4.60009,2469.96,2020-4-11T03:41:29Z
2020-04-11T01:43:53Z,42.805,6.029,13.2974,4.59999,2469.947,2020-4-11T03:44:32Z
2020-04-11T01:46:56Z,42.805,6.029,13.2980,4.59999,2469.984,2020-4-11T03:47:35Z
2020-04-11T01:49:59Z,42.805,6.029,13.2978,4.60006,2469.97,2020-4-11T03:50:39Z
2020-04-11T01:53:03Z,42.805,6.029,13.2994,4.60013,2469.993,2020-4-11T03:53:42Z
2020-04-11T01:56:06Z,42.805,6.029,13.2982,4.60000,2470.007,2020-4-11T03:56:45Z
2020-04-11T01:59:09Z,42.805,6.029,13.2986,4.59999,2469.947,2020-4-11T03:59:48Z
2020-04-11T02:02:12Z,42.805,6.029,13.2982,4.60003,2469.947,2020-4-11T04:02:52Z
2020-04-11T02:05:16Z,42.805,6.029,13.2978,4.59991,2469.993,2020-4-11T04:05:55Z
2020-04-11T02:08:19Z,42.805,6.029,13.2978,4.59987,2469.96,2020-4-11T04:08:58Z
2020-04-11T02:11:22Z,42.805,6.029,13.2980,4.60003,2469.923,2020-4-11T04:12:01Z
2020-04-11T02:14:25Z,42.805,6.029,13.2983,4.60007,2469.937,2020-4-11T04:15:05Z
2020-04-11T02:17:28Z,42.805,6.029,13.2986,4.60001,2469.923,2020-4-11T04:18:08Z
2020-04-11T02:20:32Z,42.805,6.029,13.2985,4.60009,2469.923,2020-4-11T04:21:11Z
2020-04-11T02:23:35Z,42.805,6.029,13.2990,4.60010,2469.947,2020-4-11T04:24:14Z
2020-04-11T02:26:38Z,42.805,6.029,13.2982,4.59998,2469.96,2020-4-11T04:27:18Z
2020-04-11T02:29:42Z,42.805,6.029,13.2978,4.59997,2469.923,2020-4-11T04:30:21Z
2020-04-11T02:32:45Z,42.805,6.029,13.2986,4.60003,2469.947,2020-4-11T04:33:24Z
2020-04-11T02:35:48Z,42.805,6.029,13.2983,4.59997,2469.937,2020-4-11T04:36:27Z
2020-04-11T02:38:51Z,42.805,6.029,13.2979,4.59997,2469.937,2020-4-11T04:39:31Z
2020-04-11T02:41:54Z,42.805,6.029,13.2981,4.59996,2469.947,2020-4-11T04:42:34Z
2020-04-11T02:44:58Z,42.805,6.029,13.2980,4.59999,2469.947,2020-4-11T04:45:37Z
2020-04-11T02:48:01Z,42.805,6.029,13.2980,4.60006,2469.9,2020-4-11T04:48:40Z
2020-04-11T02:51:04Z,42.805,6.029,13.2979,4.60018,2469.923,2020-4-11T04:51:44Z
2020-04-11T02:54:08Z,42.805,6.029,13.2985,4.60011,2469.96,2020-4-11T04:54:47Z
2020-04-11T02:57:11Z,42.805,6.029,13.2989,4.60013,2469.923,2020-4-11T04:57:50Z
2020-04-11T03:00:14Z,42.805,6.029,13.2982,4.59999,2469.947,2020-4-11T05:00:53Z
2020-04-11T03:03:17Z,42.805,6.029,13.2981,4.60014,2469.923,2020-4-11T05:03:57Z
2020-04-11T03:06:20Z,42.805,6.029,13.2987,4.60011,2469.9,2020-4-11T05:07:00Z
2020-04-11T03:09:24Z,42.805,6.029,13.2976,4.60011,2469.9,2020-4-11T05:10:03Z
2020-04-11T03:12:27Z,42.805,6.029,13.2983,4.60001,2469.923,2020-4-11T05:13:06Z
2020-04-11T03:15:30Z,42.805,6.029,13.2987,4.60003,2469.923,2020-4-11T05:16:10Z
2020-04-11T03:18:33Z,42.805,6.029,13.2984,4.59996,2469.923,2020-4-11T05:19:13Z
2020-04-11T03:21:37Z,42.805,6.029,13.2993,4.59997,2469.9,2020-4-11T05:22:16Z
2020-04-11T03:24:40Z,42.805,6.029,13.2982,4.60007,2469.923,2020-4-11T05:25:19Z
2020-04-11T03:27:43Z,42.805,6.029,13.2992,4.60002,2469.937,2020-4-11T05:28:22Z
2020-04-11T03:30:47Z,42.805,6.029,13.2982,4.60022,2469.923,2020-4-11T05:31:26Z
2020-04-11T03:33:50Z,42.805,6.029,13.2980,4.60011,2469.9,2020-4-11T05:34:29Z
2020-04-11T03:36:53Z,42.805,6.029,13.2983,4.60013,2469.914,2020-4-11T05:37:32Z
2020-04-11T03:39:56Z,42.805,6.029,13.2989,4.60009,2469.9,2020-4-11T05:40:36Z
2020-04-11T03:43:00Z,42.805,6.029,13.2982,4.59986,2469.9,2020-4-11T05:43:39Z
2020-04-11T03:46:03Z,42.805,6.029,13.2983,4.59995,2469.876,2020-4-11T05:46:42Z
2020-04-11T03:49:06Z,42.805,6.029,13.2993,4.60001,2469.9,2020-4-11T05:49:45Z
2020-04-11T03:52:09Z,42.805,6.029,13.2984,4.59993,2469.9,2020-4-11T05:52:49Z
2020-04-11T03:55:13Z,42.805,6.029,13.2983,4.60004,2469.937,2020-4-11T05:55:52Z
2020-04-11T03:58:16Z,42.805,6.029,13.2980,4.59991,2469.9,2020-4-11T05:58:55Z
2020-04-11T04:01:19Z,42.805,6.029,13.2986,4.59988,2469.9,2020-4-11T06:01:58Z
2020-04-11T04:04:22Z,42.805,6.029,13.2979,4.59999,2469.9,2020-4-11T06:05:02Z
2020-04-11T04:07:25Z,42.805,6.029,13.2983,4.60006,2469.89,2020-4-11T06:08:05Z
2020-04-11T04:10:29Z,42.805,6.029,13.2983,4.59995,2469.9,2020-4-11T06:11:08Z
2020-04-11T04:13:32Z,42.805,6.029,13.2980,4.59987,2469.9,2020-4-11T06:14:11Z
2020-04-11T04:16:35Z,42.805,6.029,13.2981,4.59989,2469.937,2020-4-11T06:17:14Z
2020-04-11T04:19:38Z,42.805,6.029,13.2980,4.59983,2469.89,2020-4-11T06:20:18Z
2020-04-11T04:22:42Z,42.805,6.029,13.2976,4.59981,2469.9,2020-4-11T06:23:21Z
2020-04-11T04:25:45Z,42.805,6.029,13.2974,4.59986,2469.876,2020-4-11T06:26:24Z
2020-04-11T04:28:48Z,42.805,6.029,13.2976,4.59978,2469.914,2020-4-11T06:29:27Z
2020-04-11T04:31:51Z,42.805,6.029,13.2981,4.59983,2469.9,2020-4-11T06:32:31Z
2020-04-11T04:34:55Z,42.805,6.029,13.2974,4.59988,2469.914,2020-4-11T06:35:34Z
2020-04-11T04:37:58Z,42.805,6.029,13.2974,4.59982,2469.9,2020-4-11T06:38:37Z
2020-04-11T04:41:01Z,42.805,6.029,13.2979,4.59994,2469.937,2020-4-11T06:41:40Z
2020-04-11T04:44:04Z,42.805,6.029,13.2971,4.59984,2469.937,2020-4-11T06:44:44Z
2020-04-11T04:47:08Z,42.805,6.029,13.2977,4.59979,2469.9,2020-4-11T06:47:47Z
2020-04-11T04:50:11Z,42.805,6.029,13.2980,4.59985,2469.89,2020-4-11T06:50:50Z
2020-04-11T04:53:14Z,42.805,6.029,13.2982,4.59996,2469.937,2020-4-11T06:53:53Z
2020-04-11T04:56:17Z,42.805,6.029,13.2983,4.59990,2469.876,2020-4-11T06:56:57Z
2020-04-11T04:59:21Z,42.805,6.029,13.2983,4.60003,2469.96,2020-4-11T07:00:00Z
2020-04-11T05:02:24Z,42.805,6.029,13.2980,4.60000,2469.9,2020-4-11T07:03:03Z
2020-04-11T05:05:27Z,42.805,6.029,13.2974,4.59996,2469.914,2020-4-11T07:06:07Z
2020-04-11T05:08:30Z,42.805,6.029,13.2973,4.60010,2469.9,2020-4-11T07:09:10Z
2020-04-11T05:11:34Z,42.805,6.029,13.2973,4.60002,2469.937,2020-4-11T07:12:13Z
2020-04-11T05:14:37Z,42.805,6.029,13.2979,4.59993,2469.937,2020-4-11T07:15:17Z
2020-04-11T05:17:41Z,42.805,6.029,13.2974,4.59986,2469.914,2020-4-11T07:18:20Z
2020-04-11T05:20:44Z,42.805,6.029,13.2973,4.59987,2469.937,2020-4-11T07:21:23Z
2020-04-11T05:23:47Z,42.805,6.029,13.2980,4.59996,2469.909,2020-4-11T07:24:26Z
2020-04-11T05:26:50Z,42.805,6.029,13.2984,4.60014,2469.937,2020-4-11T07:27:30Z
2020-04-11T05:29:54Z,42.805,6.029,13.2985,4.60001,2469.923,2020-4-11T07:30:33Z
2020-04-11T05:32:57Z,42.805,6.029,13.2979,4.59988,2469.937,2020-4-11T07:33:36Z
2020-04-11T05:36:00Z,42.805,6.029,13.2977,4.59991,2469.97,2020-4-11T07:36:40Z
2020-04-11T05:39:04Z,42.805,6.029,13.2979,4.59993,2469.947,2020-4-11T07:39:43Z
2020-04-11T05:42:07Z,42.805,6.029,13.2979,4.59996,2469.947,2020-4-11T07:42:46Z
2020-04-11T05:45:10Z,42.805,6.029,13.2974,4.59986,2469.947,2020-4-11T07:45:49Z
2020-04-11T05:48:13Z,42.805,6.029,13.2977,4.59998,2469.937,2020-4-11T07:48:53Z
2020-04-11T05:51:17Z,42.805,6.029,13.2986,4.60015,2469.947,2020-4-11T07:51:56Z
2020-04-11T05:54:20Z,42.805,6.029,13.2978,4.60011,2469.96,2020-4-11T07:54:59Z
2020-04-11T05:57:23Z,42.805,6.029,13.2981,4.59988,2469.947,2020-4-11T07:58:03Z
2020-04-11T06:00:26Z,42.805,6.029,13.2982,4.59988,2469.984,2020-4-11T08:01:06Z
2020-04-11T06:03:30Z,42.805,6.029,13.2974,4.60013,2469.947,2020-4-11T08:04:09Z
2020-04-11T06:06:33Z,42.805,6.029,13.2978,4.60002,2469.947,2020-4-11T08:07:12Z
2020-04-11T06:09:36Z,42.805,6.029,13.2975,4.59994,2469.993,2020-4-11T08:10:16Z
2020-04-11T06:12:40Z,42.805,6.029,13.2983,4.60005,2469.984,2020-4-11T08:13:19Z
2020-04-11T06:15:43Z,42.805,6.029,13.2979,4.59996,2469.947,2020-4-11T08:16:22Z
2020-04-11T06:18:46Z,42.805,6.029,13.2981,4.59986,2469.993,2020-4-11T08:19:25Z
2020-04-11T06:21:49Z,42.805,6.029,13.2983,4.59990,2469.993,2020-4-11T08:22:29Z
2020-04-11T06:24:52Z,42.805,6.029,13.2976,4.59987,2469.97,2020-4-11T08:25:32Z
2020-04-11T06:27:56Z,42.805,6.029,13.2985,4.60009,2469.97,2020-4-11T08:28:35Z
2020-04-11T06:30:59Z,42.805,6.029,13.2994,4.59995,2469.993,2020-4-11T08:31:38Z
2020-04-11T06:34:02Z,42.805,6.029,13.2977,4.59989,2470.007,2020-4-11T08:34:41Z
2020-04-11T06:37:05Z,42.805,6.029,13.2982,4.59990,2469.984,2020-4-11T08:37:45Z
2020-04-11T06:40:09Z,42.805,6.029,13.2984,4.59988,2469.993,2020-4-11T08:40:48Z
2020-04-11T06:43:12Z,42.805,6.029,13.2980,4.59993,2469.993,2020-4-11T08:43:51Z
2020-04-11T06:46:15Z,42.805,6.029,13.2990,4.60013,2469.993,2020-4-11T08:46:54Z
2020-04-11T06:49:18Z,42.805,6.029,13.2984,4.59996,2469.993,2020-4-11T08:49:58Z
2020-04-11T06:52:22Z,42.805,6.029,13.2977,4.59996,2470.017,2020-4-11T08:53:01Z
2020-04-11T06:55:25Z,42.805,6.029,13.2981,4.59991,2470.017,2020-4-11T08:56:04Z
2020-04-11T06:58:28Z,42.805,6.029,13.2976,4.59991,2470.017,2020-4-11T08:59:07Z
2020-04-11T07:01:31Z,42.805,6.029,13.2977,4.59987,2470.017,2020-4-11T09:02:11Z
2020-04-11T07:04:35Z,42.805,6.029,13.2980,4.59998,2470.03,2020-4-11T09:05:14Z
2020-04-11T07:07:38Z,42.805,6.029,13.2979,4.59994,2470.04,2020-4-11T09:08:17Z
2020-04-11T07:10:41Z,42.805,6.029,13.2978,4.59986,2470.04,2020-4-11T09:11:20Z
2020-04-11T07:13:44Z,42.805,6.029,13.2984,4.60008,2470.017,2020-4-11T09:14:24Z
2020-04-11T07:16:48Z,42.805,6.029,13.2981,4.59990,2470.053,2020-4-11T09:17:27Z
2020-04-11T07:19:51Z,42.805,6.029,13.2979,4.59991,2470.04,2020-4-11T09:20:30Z
2020-04-11T07:22:54Z,42.805,6.029,13.2983,4.59993,2470.04,2020-4-11T09:23:33Z
2020-04-11T07:25:58Z,42.805,6.029,13.2988,4.59993,2470.03,2020-4-11T09:26:37Z
2020-04-11T07:29:01Z,42.805,6.029,13.2979,4.60007,2470.03,2020-4-11T09:29:40Z
2020-04-11T07:32:04Z,42.805,6.029,13.2982,4.59989,2470.04,2020-4-11T09:32:44Z
2020-04-11T07:35:07Z,42.805,6.029,13.2982,4.60005,2470.017,2020-4-11T09:35:47Z
2020-04-11T07:38:11Z,42.805,6.029,13.2981,4.60003,2470.063,2020-4-11T09:38:50Z
2020-04-11T07:41:14Z,42.805,6.029,13.2989,4.60008,2470.1,2020-4-11T09:41:53Z
2020-04-11T07:44:17Z,42.805,6.029,13.2976,4.60004,2470.04,2020-4-11T09:44:56Z
2020-04-11T07:47:20Z,42.805,6.029,13.2977,4.59993,2470.077,2020-4-11T09:48:00Z
2020-04-11T07:50:24Z,42.805,6.029,13.2976,4.59995,2470.077,2020-4-11T09:51:03Z
2020-04-11T07:53:27Z,42.805,6.029,13.2979,4.60006,2470.04,2020-4-11T09:54:06Z
2020-04-11T07:56:30Z,42.805,6.029,13.2983,4.60016,2470.077,2020-4-11T09:57:09Z
2020-04-11T07:59:33Z,42.805,6.029,13.2982,4.60017,2470.1,2020-4-11T10:00:13Z
2020-04-11T08:02:37Z,42.805,6.029,13.2985,4.60027,2470.063,2020-4-11T10:03:16Z
2020-04-11T08:05:40Z,42.805,6.029,13.2974,4.60008,2470.087,2020-4-11T10:06:19Z
2020-04-11T08:08:43Z,42.805,6.029,13.2987,4.60014,2470.077,2020-4-11T10:09:22Z
2020-04-11T08:11:46Z,42.805,6.029,13.2975,4.60002,2470.087,2020-4-11T10:12:26Z
2020-04-11T08:14:50Z,42.805,6.029,13.2976,4.59992,2470.077,2020-4-11T10:15:29Z
2020-04-11T08:17:53Z,42.805,6.029,13.2976,4.59989,2470.077,2020-4-11T10:18:32Z
2020-04-11T08:20:56Z,42.805,6.029,13.2988,4.59998,2470.087,2020-4-11T10:21:35Z
2020-04-11T08:23:59Z,42.805,6.029,13.2976,4.60005,2470.114,2020-4-11T10:24:39Z
2020-04-11T08:27:03Z,42.805,6.029,13.2978,4.60006,2470.1,2020-4-11T10:27:42Z
2020-04-11T08:30:06Z,42.805,6.029,13.2986,4.59997,2470.087,2020-4-11T10:30:45Z
2020-04-11T08:33:09Z,42.805,6.029,13.2982,4.60009,2470.077,2020-4-11T10:33:48Z
2020-04-11T08:36:13Z,42.805,6.029,13.2983,4.59995,2470.063,2020-4-11T10:36:52Z
2020-04-11T08:39:16Z,42.805,6.029,13.2983,4.60001,2470.1,2020-4-11T10:39:55Z
2020-04-11T08:42:19Z,42.805,6.029,13.2983,4.59994,2470.11,2020-4-11T10:42:58Z
2020-04-11T08:45:22Z,42.805,6.029,13.2981,4.59986,2470.11,2020-4-11T10:46:02Z
2020-04-11T08:48:26Z,42.805,6.029,13.2975,4.59988,2470.124,2020-4-11T10:49:05Z
2020-04-11T08:51:29Z,42.805,6.029,13.2985,4.59997,2470.124,2020-4-11T10:52:08Z
2020-04-11T08:54:32Z,42.805,6.029,13.2979,4.59994,2470.087,2020-4-11T10:55:11Z
2020-04-11T08:57:35Z,42.805,6.029,13.2989,4.60009,2470.096,2020-4-11T10:58:15Z
2020-04-11T09:00:39Z,42.805,6.029,13.2977,4.60009,2470.087,2020-4-11T11:01:18Z
2020-04-11T09:03:42Z,42.805,6.029,13.2987,4.59999,2470.087,2020-4-11T11:04:21Z
2020-04-11T09:06:45Z,42.805,6.029,13.2984,4.59996,2470.077,2020-4-11T11:07:24Z
2020-04-11T09:09:48Z,42.805,6.029,13.2982,4.59992,2470.133,2020-4-11T11:10:28Z
2020-04-11T09:12:52Z,42.805,6.029,13.2975,4.60001,2470.124,2020-4-11T11:13:31Z
2020-04-11T09:15:55Z,42.805,6.029,13.2978,4.59994,2470.1,2020-4-11T11:16:34Z
2020-04-11T09:18:58Z,42.805,6.029,13.2975,4.60007,2470.087,2020-4-11T11:19:37Z
2020-04-11T09:22:01Z,42.805,6.029,13.2981,4.59992,2470.1,2020-4-11T11:22:41Z
2020-04-11T09:25:05Z,42.805,6.029,13.2971,4.59991,2470.1,2020-4-11T11:25:44Z
2020-04-11T09:28:08Z,42.805,6.029,13.2982,4.60003,2470.11,2020-4-11T11:28:47Z
2020-04-11T09:31:11Z,42.805,6.029,13.2987,4.60007,2470.11,2020-4-11T11:31:50Z
2020-04-11T09:34:14Z,42.805,6.029,13.2982,4.60006,2470.087,2020-4-11T11:34:54Z
2020-04-11T09:37:18Z,42.805,6.029,13.2986,4.60007,2470.087,2020-4-11T11:37:57Z
2020-04-11T09:40:21Z,42.805,6.029,13.2982,4.60019,2470.11,2020-4-11T11:41:00Z
2020-04-11T09:43:24Z,42.805,6.029,13.2988,4.60016,2470.063,2020-4-11T11:44:03Z
2020-04-11T09:46:27Z,42.805,6.029,13.2979,4.60011,2470.087,2020-4-11T11:47:06Z
2020-04-11T09:49:31Z,42.805,6.029,13.2976,4.59995,2470.087,2020-4-11T11:50:10Z
2020-04-11T09:52:34Z,42.805,6.029,13.2977,4.60002,2470.063,2020-4-11T11:53:13Z
2020-04-11T09:55:37Z,42.805,6.029,13.2986,4.60004,2470.133,2020-4-11T11:56:16Z
2020-04-11T09:58:40Z,42.805,6.029,13.2984,4.60021,2470.087,2020-4-11T11:59:19Z
2020-04-11T10:01:43Z,42.805,6.029,13.2983,4.60001,2470.087,2020-4-11T12:02:23Z
2020-04-11T10:04:47Z,42.805,6.029,13.2976,4.59991,2470.063,2020-4-11T12:05:26Z
2020-04-11T10:07:50Z,42.805,6.029,13.2980,4.59990,2470.1,2020-4-11T12:08:29Z
2020-04-11T10:10:53Z,42.805,6.029,13.2980,4.59993,2470.087,2020-4-11T12:11:32Z
2020-04-11T10:13:56Z,42.805,6.029,13.2974,4.59989,2470.1,2020-4-11T12:14:36Z
2020-04-11T10:17:00Z,42.805,6.029,13.2974,4.59992,2470.063,2020-4-11T12:17:39Z
2020-04-11T10:20:03Z,42.805,6.029,13.2977,4.59998,2470.11,2020-4-11T12:20:42Z
2020-04-11T10:23:06Z,42.805,6.029,13.2976,4.60008,2470.063,2020-4-11T12:23:45Z
2020-04-11T10:26:09Z,42.805,6.029,13.2976,4.59996,2470.077,2020-4-11T12:26:49Z
2020-04-11T10:29:13Z,42.805,6.029,13.2974,4.60009,2470.087,2020-4-11T12:29:52Z
2020-04-11T10:32:16Z,42.805,6.029,13.2977,4.60002,2470.063,2020-4-11T12:32:55Z
2020-04-11T10:35:19Z,42.805,6.029,13.2974,4.59994,2470.04,2020-4-11T12:35:58Z
2020-04-11T10:38:22Z,42.805,6.029,13.2989,4.59999,2470.063,2020-4-11T12:39:02Z
2020-04-11T10:41:26Z,42.805,6.029,13.2977,4.59999,2470.077,2020-4-11T12:42:05Z
2020-04-11T10:44:29Z,42.805,6.029,13.2983,4.59998,2470.063,2020-4-11T12:45:08Z
2020-04-11T10:47:32Z,42.805,6.029,13.2986,4.60007,2470.063,2020-4-11T12:48:12Z
2020-04-11T10:50:35Z,42.805,6.029,13.2979,4.59996,2470.053,2020-4-11T12:51:15Z
2020-04-11T10:53:39Z,42.805,6.029,13.2978,4.59990,2470.053,2020-4-11T12:54:18Z
2020-04-11T10:56:42Z,42.805,6.029,13.2974,4.60001,2470.04,2020-4-11T12:57:21Z
2020-04-11T10:59:45Z,42.805,6.029,13.2987,4.60001,2470.053,2020-4-11T13:00:25Z
2020-04-11T11:02:49Z,42.805,6.029,13.2982,4.60015,2470.063,2020-4-11T13:03:28Z
2020-04-11T11:05:52Z,42.805,6.029,13.2976,4.60006,2470.077,2020-4-11T13:06:31Z
2020-04-11T11:08:55Z,42.805,6.029,13.2974,4.59988,2470.063,2020-4-11T13:09:34Z
2020-04-11T11:11:59Z,42.805,6.029,13.2973,4.59990,2470.053,2020-4-11T13:12:38Z
2020-04-11T11:15:02Z,42.805,6.029,13.2986,4.60003,2470.017,2020-4-11T13:15:41Z
2020-04-11T11:18:05Z,42.805,6.029,13.2982,4.59996,2470.063,2020-4-11T13:18:44Z
2020-04-11T11:21:08Z,42.805,6.029,13.2984,4.59994,2470.053,2020-4-11T13:21:48Z
2020-04-11T11:24:12Z,42.805,6.029,13.2975,4.59991,2470.04,2020-4-11T13:24:51Z
2020-04-11T11:27:15Z,42.805,6.029,13.2978,4.60003,2470.04,2020-4-11T13:27:54Z
2020-04-11T11:30:18Z,42.805,6.029,13.2987,4.60014,2470.03,2020-4-11T13:30:57Z
2020-04-11T11:33:21Z,42.805,6.029,13.2978,4.60001,2470.017,2020-4-11T13:34:01Z
2020-04-11T11:36:24Z,42.805,6.029,13.2985,4.59997,2470.03,2020-4-11T13:37:04Z
2020-04-11T11:39:28Z,42.805,6.029,13.2974,4.59992,2469.993,2020-4-11T13:40:07Z
2020-04-11T11:42:31Z,42.805,6.029,13.2976,4.59985,2470.017,2020-4-11T13:43:10Z
2020-04-11T11:45:34Z,42.805,6.029,13.2978,4.59993,2470.03,2020-4-11T13:46:13Z
2020-04-11T11:48:37Z,42.805,6.029,13.2985,4.60009,2470.007,2020-4-11T13:49:17Z
2020-04-11T11:51:41Z,42.805,6.029,13.2984,4.60009,2470.04,2020-4-11T13:52:20Z
2020-04-11T11:54:44Z,42.805,6.029,13.2982,4.60020,2469.993,2020-4-11T13:55:23Z
2020-04-11T11:57:47Z,42.805,6.029,13.2972,4.60008,2470.04,2020-4-11T13:58:27Z
2020-04-11T12:00:51Z,42.805,6.029,13.2974,4.60005,2470.007,2020-4-11T14:01:30Z
2020-04-11T12:03:54Z,42.805,6.029,13.2979,4.60002,2470.007,2020-4-11T14:04:33Z
2020-04-11T12:06:57Z,42.805,6.029,13.2979,4.60004,2470.007,2020-4-11T14:07:37Z
2020-04-11T12:10:01Z,42.805,6.029,13.2977,4.59997,2469.993,2020-4-11T14:10:40Z
2020-04-11T12:13:04Z,42.805,6.029,13.2976,4.60000,2470.017,2020-4-11T14:13:43Z
2020-04-11T12:16:07Z,42.805,6.029,13.2975,4.60002,2469.993,2020-4-11T14:16:46Z
2020-04-11T12:19:10Z,42.805,6.029,13.2973,4.59996,2470.007,2020-4-11T14:19:50Z
2020-04-11T12:22:14Z,42.805,6.029,13.2972,4.59988,2469.97,2020-4-11T14:22:53Z
2020-04-11T12:25:17Z,42.805,6.029,13.2976,4.59997,2470.007,2020-4-11T14:25:56Z
2020-04-11T12:28:20Z,42.805,6.029,13.2986,4.60017,2469.993,2020-4-11T14:28:59Z
2020-04-11T12:31:23Z,42.805,6.029,13.2979,4.60002,2469.947,2020-4-11T14:32:03Z
2020-04-11T12:34:27Z,42.805,6.029,13.2986,4.60007,2469.984,2020-4-11T14:35:06Z
2020-04-11T12:37:30Z,42.805,6.029,13.2977,4.59999,2469.97,2020-4-11T14:38:09Z
2020-04-11T12:40:33Z,42.805,6.029,13.2982,4.60003,2469.97,2020-4-11T14:41:13Z
2020-04-11T12:43:37Z,42.805,6.029,13.2978,4.59985,2469.97,2020-4-11T14:44:16Z
2020-04-11T12:46:40Z,42.805,6.029,13.2973,4.60000,2469.993,2020-4-11T14:47:19Z
2020-04-11T12:49:43Z,42.805,6.029,13.2970,4.59991,2469.993,2020-4-11T14:50:22Z
2020-04-11T12:52:46Z,42.805,6.029,13.2985,4.59997,2469.96,2020-4-11T14:53:25Z
2020-04-11T12:55:50Z,42.805,6.029,13.2979,4.59999,2469.947,2020-4-11T14:56:29Z
2020-04-11T12:58:53Z,42.805,6.029,13.2977,4.59996,2470.007,2020-4-11T14:59:32Z
2020-04-11T13:01:56Z,42.805,6.029,13.2977,4.59985,2469.97,2020-4-11T15:02:35Z
2020-04-11T13:04:59Z,42.805,6.029,13.2975,4.59997,2469.97,2020-4-11T15:05:39Z
2020-04-11T13:08:03Z,42.805,6.029,13.2983,4.60009,2469.947,2020-4-11T15:08:42Z
2020-04-11T13:11:06Z,42.805,6.029,13.2978,4.59995,2469.947,2020-4-11T15:11:45Z
2020-04-11T13:14:09Z,42.805,6.029,13.2978,4.59996,2469.97,2020-4-11T15:14:48Z
2020-04-11T13:17:12Z,42.805,6.029,13.2995,4.60006,2469.96,2020-4-11T15:17:52Z
2020-04-11T13:20:15Z,42.805,6.029,13.2978,4.60002,2469.984,2020-4-11T15:20:55Z
2020-04-11T13:23:19Z,42.805,6.029,13.2981,4.60002,2469.947,2020-4-11T15:23:58Z
2020-04-11T13:26:22Z,42.805,6.029,13.2975,4.59985,2469.96,2020-4-11T15:27:01Z
2020-04-11T13:29:25Z,42.805,6.029,13.2976,4.59989,2469.984,2020-4-11T15:30:05Z
2020-04-11T13:32:28Z,42.805,6.029,13.2978,4.60006,2469.96,2020-4-11T15:33:08Z
2020-04-11T13:35:32Z,42.805,6.029,13.2971,4.59990,2469.96,2020-4-11T15:36:11Z
2020-04-11T13:38:35Z,42.805,6.029,13.2974,4.59999,2469.96,2020-4-11T15:39:14Z
2020-04-11T13:41:38Z,42.805,6.029,13.2974,4.59986,2469.937,2020-4-11T15:42:18Z
2020-04-11T13:44:42Z,42.805,6.029,13.2984,4.59978,2469.947,2020-4-11T15:45:21Z
2020-04-11T13:47:45Z,42.805,6.029,13.2975,4.59991,2469.9,2020-4-11T15:48:24Z
2020-04-11T13:50:48Z,42.805,6.029,13.2971,4.59979,2469.96,2020-4-11T15:51:28Z
2020-04-11T13:53:52Z,42.805,6.029,13.2977,4.59993,2469.937,2020-4-11T15:54:31Z
2020-04-11T13:56:55Z,42.805,6.029,13.2979,4.59997,2469.947,2020-4-11T15:57:34Z
2020-04-11T13:59:58Z,42.805,6.029,13.2976,4.59999,2469.947,2020-4-11T16:00:37Z
2020-04-11T14:03:01Z,42.805,6.029,13.2976,4.60005,2469.923,2020-4-11T16:03:41Z
2020-04-11T14:06:05Z,42.805,6.029,13.2983,4.60006,2469.97,2020-4-11T16:06:44Z
2020-04-11T14:09:08Z,42.805,6.029,13.2986,4.59995,2469.923,2020-4-11T16:09:47Z
2020-04-11T14:12:11Z,42.805,6.029,13.2976,4.59986,2469.937,2020-4-11T16:12:50Z
2020-04-11T14:15:14Z,42.805,6.029,13.2972,4.60000,2469.947,2020-4-11T16:15:54Z
2020-04-11T14:18:18Z,42.805,6.029,13.2973,4.59989,2469.947,2020-4-11T16:18:57Z
2020-04-11T14:21:21Z,42.805,6.029,13.2979,4.59992,2469.923,2020-4-11T16:22:00Z
2020-04-11T14:24:24Z,42.805,6.029,13.2974,4.59983,2469.914,2020-4-11T16:25:03Z
2020-04-11T14:27:27Z,42.805,6.029,13.2976,4.59981,2469.937,2020-4-11T16:28:07Z
2020-04-11T14:30:31Z,42.805,6.029,13.2980,4.59988,2469.937,2020-4-11T16:31:10Z
2020-04-11T14:33:34Z,42.805,6.029,13.2971,4.59986,2469.923,2020-4-11T16:34:13Z
2020-04-11T14:36:37Z,42.805,6.029,13.2976,4.59980,2469.9,2020-4-11T16:37:17Z
2020-04-11T14:39:41Z,42.805,6.029,13.2981,4.59993,2469.947,2020-4-11T16:40:20Z
2020-04-11T14:42:44Z,42.805,6.029,13.2975,4.59986,2469.937,2020-4-11T16:43:23Z
2020-04-11T14:45:47Z,42.805,6.029,13.2978,4.59983,2469.914,2020-4-11T16:46:26Z
2020-04-11T14:48:50Z,42.805,6.029,13.2974,4.59991,2469.9,2020-4-11T16:49:30Z
2020-04-11T14:51:54Z,42.805,6.029,13.2976,4.59989,2469.937,2020-4-11T16:52:33Z
2020-04-11T14:54:57Z,42.805,6.029,13.2978,4.59995,2469.914,2020-4-11T16:55:36Z
2020-04-11T14:58:00Z,42.805,6.029,13.2973,4.59996,2469.876,2020-4-11T16:58:39Z
2020-04-11T15:01:03Z,42.805,6.029,13.2978,4.59991,2469.876,2020-4-11T17:01:43Z
2020-04-11T15:04:07Z,42.805,6.029,13.2975,4.59983,2469.89,2020-4-11T17:04:46Z
2020-04-11T15:07:10Z,42.805,6.029,13.2976,4.59986,2469.914,2020-4-11T17:07:49Z
2020-04-11T15:10:13Z,42.805,6.029,13.2979,4.59984,2469.876,2020-4-11T17:10:52Z
2020-04-11T15:13:16Z,42.805,6.029,13.2980,4.59988,2469.876,2020-4-11T17:13:56Z